Location: Biharia
(46.4333°N, 22.8000°E)
Time: 03:56:53
(UTC+00:00)

Cosmos 494 Rocket - Pass Details

Date: 02 June 2022
Orbit: 742 x 770 km, 74.1° (Epoch: 05 July)

Event Time Altitude Azimuth Distance (km) Brightness Sun altitude
Rises 23:10:12 0° 317° (NW) 3,190 7.7 -20.6°
Reaches altitude 10° 23:15:02 10° 276° (W) 2,260 6.4 -20.4°
Maximum altitude 23:15:42 10° 269° (W) 2,243 6.3 -20.4°
Drops below altitude 10° 23:16:22 10° 261° (W) 2,259 6.2 -20.4°
Enters shadow 23:16:27 10° 260° (W) 2,263 6.2 -20.4°
